EW6434 Weather Reports


time (UTC)temp
F
wind
direction
speed
knots
gust
knots
rain 1hr
in
rain 24hr
in
rain mn
in
humidity
%
barometer
mb
20260502163016 47 250 0.0 1.7 0.00 0.00 0.00 38 1022.2
20260502161509 46 87 0.0 2.6 0.00 0.00 0.00 41 1022.5
20260502151610 40 203 0.0 0.0 0.00 0.00 0.00 59 1022.9
20260502140118 26 189 0.0 0.0 0.00 0.00 0.00 85 1023.8
20260502123040 24 189 0.0 0.0 0.00 0.00 0.00 84 1022.7
20260502121539 25 189 0.0 0.0 0.00 0.00 0.00 83 1022.6
20260502114533 25 189 0.0 0.0 0.00 0.00 0.00 83 1022.5
20260502113045 25 189 0.0 0.0 0.00 0.00 0.00 83 1022.5
20260502111533 25 189 0.0 0.0 0.00 0.00 0.00 82 1022.4
20260502110035 26 189 0.0 0.0 0.00 0.00 0.00 82 1022.4
20260502104527 26 189 0.0 0.0 0.00 0.00 0.00 81 1022.2
20260502103026 26 189 0.0 0.0 0.00 0.00 0.00 81 1022.2
20260502101526 27 189 0.0 0.0 0.00 0.00 0.00 81 1022.2
20260502091518 27 189 0.0 0.0 0.00 0.00 0.00 81 1021.9
20260502070111 30 193 0.0 0.0 0.00 0.00 0.00 75 1020.3
20260502064605 31 193 0.0 0.0 0.00 0.00 0.00 74 1020.1
20260502063053 32 193 0.0 0.0 0.00 0.00 0.00 73 1019.7
20260502061545 33 193 0.0 0.0 0.00 0.00 0.00 69 1019.6
20260502060042 34 193 0.0 0.0 0.00 0.00 0.00 66 1019.5
20260502054541 35 193 0.0 0.0 0.00 0.00 0.00 64 1019.4
20260502053041 36 193 0.0 0.0 0.00 0.00 0.00 63 1019.4
20260502051540 36 149 0.0 0.0 0.00 0.00 0.00 65 1019.4
20260502050041 36 62 0.0 1.7 0.00 0.00 0.00 62 1019.5
20260502044539 37 20 0.9 5.2 0.00 0.00 0.00 61 1019.6
20260502043039 37 224 0.0 2.6 0.00 0.00 0.00 62 1019.5
20260502041546 37 70 0.0 1.7 0.00 0.00 0.00 58 1019.5
20260502040036 36 272 0.0 1.7 0.00 0.00 0.00 64 1019.3
20260502034535 37 308 0.0 3.5 0.00 0.00 0.00 63 1019.1
20260502033032 37 269 0.0 2.6 0.00 0.00 0.00 64 1018.8
20260502031531 37 263 0.0 2.6 0.00 0.00 0.00 67 1018.5
20260502030030 37 243 0.0 5.2 0.00 0.00 0.00 69 1018.2
20260502024529 37 223 0.0 0.9 0.00 0.00 0.00 65 1018.1
20260502023026 37 240 0.0 2.6 0.00 0.00 0.00 63 1017.6
20260502021524 37 249 0.0 2.6 0.00 0.00 0.00 66 1017.4
20260502020024 36 262 0.0 2.6 0.00 0.00 0.00 68 1017.4
20260502014524 37 105 0.0 0.9 0.00 0.00 0.00 66 1017.3
20260502013023 37 259 0.0 0.9 0.00 0.00 0.00 67 1017.1
20260502011521 37 238 0.0 2.6 0.00 0.00 0.00 68 1017.0
20260502010021 37 205 0.0 4.3 0.00 0.00 0.00 70 1017.1
20260502004521 37 210 0.0 1.7 0.00 0.00 0.00 69 1017.1
20260502003019 39 259 0.0 6.1 0.00 0.00 0.00 62 1016.9
20260502001519 41 255 1.7 7.0 0.00 0.00 0.00 57 1016.3
20260502000014 42 116 0.0 5.2 0.00 0.00 0.00 54 1016.0
20260501234514 44 274 1.7 7.0 0.00 0.00 0.00 48 1015.5
20260501233013 47 233 0.9 7.0 0.00 0.00 0.00 44 1015.3
20260501231512 49 230 1.7 7.8 0.00 0.00 0.00 46 1014.9
20260501230014 46 206 1.7 6.1 0.00 0.00 0.00 43 1014.7
20260501224511 46 150 1.7 7.0 0.00 0.00 0.00 44 1014.7
20260501223009 45 219 1.7 6.1 0.00 0.00 0.00 45 1014.7
20260501221513 47 251 0.0 6.1 0.00 0.00 0.00 42 1014.8
20260501220021 47 201 0.9 5.2 0.00 0.00 0.00 44 1014.8
20260501214514 46 150 0.0 2.6 0.00 0.00 0.00 46 1014.8
20260501213006 47 203 0.9 4.3 0.00 0.00 0.00 45 1014.8
20260501211515 46 243 1.7 7.0 0.00 0.00 0.00 51 1014.9
20260501210006 44 174 0.9 6.1 0.00 0.00 0.00 52 1015.1
20260501204505 44 233 3.5 5.2 0.00 0.00 0.00 48 1015.0
20260501203003 44 220 1.7 7.8 0.00 0.00 0.00 47 1014.9
20260501201503 46 132 2.6 6.1 0.00 0.00 0.00 41 1014.7
20260501200003 48 255 0.0 6.1 0.00 0.00 0.00 36 1014.5
20260501194502 44 275 0.0 3.5 0.00 0.00 0.00 40 1014.7
20260501193002 44 152 0.0 1.7 0.00 0.00 0.00 40 1014.8
20260501191501 45 246 0.9 5.2 0.00 0.00 0.00 37 1014.8
20260501190104 46 259 0.0 5.2 0.00 0.00 0.00 35 1014.6
20260501184600 47 218 0.0 3.5 0.00 0.00 0.00 29 1014.7
20260501183103 47 112 0.9 3.5 0.00 0.00 0.00 29 1014.6
20260501181606 46 233 2.6 6.1 0.00 0.00 0.00 27 1014.8
20260501180058 46 129 0.0 3.5 0.00 0.00 0.00 28 1014.9